Weather History for DeLand, FL

Change the Weather History Date:

Saturday, February 15, 2014

  Actual Average Record
Temperature  
Mean Temperature 56 °F -  
Max Temperature 66 °F 72 °F 69 °F (2013)
Min Temperature 46 °F 45 °F 46 °F (2014)
Degree Days  
Heating Degree Days 9    
Growing Degree Days 6 (Base 50)    
Moisture  
Dew Point 40 °F    
Average Humidity 63    
Maximum Humidity 94    
Minimum Humidity 22    
Precipitation  
Precipitation 0.00 in - - ()
Sea Level Pressure  
Sea Level Pressure 30.02 in    
Wind  
Wind Speed 8 mph (West)    
Max Wind Speed 16 mph    
Max Gust Speed 24 mph    
Averages and records for this station are not official NWS values.
T = Trace of Precipitation, MM = Missing Value Source: NWS Daily Summary

Daily Weather History Graph

Daily Weather History Graph

Search for Another Location

Airport:

Trip Planner

Search our weather history database for the weather conditions in past years. The results will help you decide how hot, cold, wet, or windy it might be!

Date:

Astronomy

Feb. 15, 2014 Rise Set
Actual Time 7:03 AM EST 6:15 PM EST
Civil Twilight 6:39 AM EST 6:39 PM EST
Nautical Twilight 6:11 AM EST 7:07 PM EST
Astronomical Twilight 5:44 AM EST 7:34 PM EST
Moon 7:05 PM EST (2/15) 7:08 AM EST (2/15)
Length of Visible Light 11h 59m
Length of Day
11h 11m
Full, 100% of the Moon is Illuminated
Feb 15
Full
Feb 22
Last Quarter
Mar 1
New
Mar 8
First Quarter
Mar 16
Full

Hourly Weather History & Observations

Time (EST) Temp. Windchill Dew Point Humidity Pressure Visibility Wind Dir Wind Speed Gust Speed Precip Events Conditions
12:15 AM 46.4 °F 44.3 °F 42.8 °F 87% 29.96 in - SSW 4.6 mph - N/A   Unknown
12:35 AM 46.4 °F 44.3 °F 42.8 °F 87% 29.94 in - South 4.6 mph - N/A   Unknown
12:55 AM 46.4 °F 44.3 °F 42.8 °F 87% 29.94 in - South 4.6 mph - N/A   Unknown
1:15 AM 46.4 °F 45.2 °F 44.6 °F 93% 29.94 in - SSW 3.5 mph - N/A   Unknown
1:35 AM 46.4 °F - 44.6 °F 93% 29.94 in - Calm Calm - N/A   Unknown
1:55 AM 46.4 °F 45.2 °F 44.6 °F 93% 29.94 in - South 3.5 mph - N/A   Unknown
2:15 AM 46.4 °F 45.2 °F 44.6 °F 93% 29.94 in - SSW 3.5 mph - N/A   Unknown
2:35 AM 46.4 °F 44.3 °F 44.6 °F 93% 29.94 in - SSW 4.6 mph - N/A   Unknown
2:55 AM 48.2 °F - 44.6 °F 87% 29.93 in - SSW 5.8 mph - N/A   Unknown
3:15 AM 48.2 °F - 46.4 °F 93% 29.92 in - SSW 8.1 mph - N/A   Unknown
3:35 AM 48.2 °F - 46.4 °F 93% 29.92 in - SSW 9.2 mph - N/A   Unknown
3:55 AM 50.0 °F - 46.4 °F 87% 29.90 in - SSW 13.8 mph - N/A   Unknown
4:15 AM 50.0 °F - 46.4 °F 87% 29.89 in - SSW 13.8 mph - N/A   Unknown
4:35 AM 50.0 °F - 48.2 °F 94% 29.90 in - SSW 13.8 mph - N/A   Unknown
4:55 AM 50.0 °F - 48.2 °F 94% 29.90 in - SSW 12.7 mph 18.4 mph N/A   Unknown
5:15 AM 50.0 °F - 48.2 °F 94% 29.90 in - SSW 13.8 mph - N/A   Unknown
5:35 AM 51.8 °F - 48.2 °F 88% 29.90 in - SSW 12.7 mph 18.4 mph N/A   Unknown
5:55 AM 51.8 °F - 50.0 °F 94% 29.90 in - SSW 12.7 mph - N/A   Unknown
6:15 AM 51.8 °F - 50.0 °F 94% 29.89 in - SSW 12.7 mph - N/A   Unknown
6:35 AM 51.8 °F - 50.0 °F 94% 29.90 in - SSW 11.5 mph - N/A   Unknown
6:55 AM 53.6 °F - 50.0 °F 88% 29.91 in - SSW 11.5 mph - N/A   Unknown
7:15 AM 53.6 °F - 50.0 °F 88% 29.91 in - SW 11.5 mph - N/A   Unknown
7:35 AM 55.4 °F - 51.8 °F 88% 29.93 in - WSW 10.4 mph - N/A   Unknown
7:55 AM 57.2 °F - 55.4 °F 94% 29.96 in - West 12.7 mph 18.4 mph N/A   Unknown
8:15 AM 55.4 °F - 53.6 °F 94% 29.98 in - WNW 10.4 mph - N/A   Unknown
8:35 AM 53.6 °F - 46.4 °F 77% 29.99 in - West 10.4 mph 16.1 mph N/A   Mostly Cloudy
8:55 AM 53.6 °F - 44.6 °F 72% 30.00 in - West 8.1 mph 20.7 mph N/A   Mostly Cloudy
9:15 AM 55.4 °F - 44.6 °F 67% 30.01 in - West 12.7 mph 16.1 mph N/A   Partly Cloudy
9:35 AM 55.4 °F - 42.8 °F 63% 30.01 in - West 11.5 mph 19.6 mph N/A   Partly Cloudy
9:55 AM 57.2 °F - 41.0 °F 55% 30.01 in - West 10.4 mph 18.4 mph N/A   Partly Cloudy
10:15 AM 57.2 °F - 41.0 °F 55% 30.02 in - West 10.4 mph 21.9 mph N/A   Clear
10:35 AM 59.0 °F - 39.2 °F 48% 30.03 in - WNW 13.8 mph 18.4 mph N/A   Clear
10:55 AM 59.0 °F - 37.4 °F 45% 30.03 in - West 11.5 mph 24.2 mph N/A   Clear
11:15 AM 60.8 °F - 35.6 °F 39% 30.03 in - West 13.8 mph 19.6 mph N/A   Clear
11:35 AM 62.6 °F - 35.6 °F 37% 30.03 in - West 13.8 mph 19.6 mph N/A   Clear
11:55 AM 62.6 °F - 32.0 °F 32% 30.03 in - WNW 16.1 mph 20.7 mph N/A   Clear
12:15 PM 64.4 °F - 32.0 °F 30% 30.02 in - West 11.5 mph 19.6 mph N/A   Clear
12:35 PM 64.4 °F - 30.2 °F 28% 30.03 in - West 12.7 mph 19.6 mph N/A   Clear
12:55 PM 64.4 °F - 24.8 °F 22% 30.01 in - WNW 12.7 mph 19.6 mph N/A   Clear
1:15 PM 66.2 °F - 26.6 °F 23% 30.02 in - West 13.8 mph 21.9 mph N/A   Clear
1:35 PM 66.2 °F - 26.6 °F 23% 30.01 in - West 13.8 mph 20.7 mph N/A   Clear
1:55 PM 66.2 °F - 26.6 °F 23% 30.01 in - WNW 13.8 mph 19.6 mph N/A   Clear
2:15 PM 66.2 °F - 28.4 °F 24% 30.01 in - WNW 11.5 mph 20.7 mph N/A   Clear
2:35 PM 66.2 °F - 26.6 °F 23% 30.02 in - West 13.8 mph 18.4 mph N/A   Clear
2:55 PM 66.2 °F - 32.0 °F 28% 30.02 in - WNW 13.8 mph 19.6 mph N/A   Clear
3:15 PM 66.2 °F - 30.2 °F 26% 30.03 in - NW 15.0 mph 19.6 mph N/A   Clear
3:35 PM 66.2 °F - 30.2 °F 26% 30.03 in - NW 12.7 mph 19.6 mph N/A   Clear
3:55 PM 64.4 °F - 32.0 °F 30% 30.04 in - NW 11.5 mph - N/A   Clear
4:15 PM 66.2 °F - 32.0 °F 28% 30.04 in - NNW 9.2 mph 16.1 mph N/A   Clear
4:35 PM 64.4 °F - 32.0 °F 30% 30.05 in - NW 10.4 mph - N/A   Clear
4:55 PM 64.4 °F - 30.2 °F 28% 30.06 in - NW 9.2 mph - N/A   Clear
5:15 PM 64.4 °F - 32.0 °F 30% 30.07 in - NW 8.1 mph - N/A   Clear
5:35 PM 64.4 °F - 32.0 °F 30% 30.08 in - NW 8.1 mph - N/A   Clear
5:55 PM 62.6 °F - 35.6 °F 37% 30.09 in - NW 8.1 mph - N/A   Clear
6:15 PM 59.0 °F - 37.4 °F 45% 30.10 in - NW 4.6 mph - N/A   Clear
6:35 PM 57.2 °F - 37.4 °F 48% 30.10 in - NW 3.5 mph - N/A   Clear
6:55 PM 55.4 °F - 37.4 °F 51% 30.11 in - NNW 3.5 mph - N/A   Clear
7:15 PM 57.2 °F - 35.6 °F 44% 30.12 in - Calm Calm - N/A   Clear
7:35 PM 53.6 °F - 37.4 °F 54% 30.13 in - Calm Calm - N/A   Clear
7:55 PM 51.8 °F - 39.2 °F 62% 30.14 in - Calm Calm - N/A   Clear
8:15 PM 50.0 °F - 39.2 °F 66% 30.14 in - NW 3.5 mph - N/A   Clear
8:35 PM 48.2 °F - 41.0 °F 76% 30.15 in - WNW 4.6 mph - N/A   Clear
8:55 PM 48.2 °F - 39.2 °F 71% 30.15 in - Calm Calm - N/A   Clear
9:15 PM 48.2 °F - 39.2 °F 71% 30.16 in - Calm Calm - N/A   Clear
9:35 PM 51.8 °F - 39.2 °F 62% 30.16 in - West 8.1 mph - N/A   Clear
9:55 PM 50.0 °F - 41.0 °F 71% 30.16 in - West 8.1 mph - N/A   Clear
10:15 PM 50.0 °F - 41.0 °F 71% 30.17 in - West 5.8 mph - N/A   Clear
10:35 PM 50.0 °F - 42.8 °F 76% 30.17 in - WNW 6.9 mph - N/A   Clear
10:55 PM 50.0 °F - 42.8 °F 76% 30.17 in - West 5.8 mph - N/A   Clear
11:15 PM 48.2 °F - 41.0 °F 76% 30.17 in - WNW 6.9 mph - N/A   Clear
11:35 PM 48.2 °F - 41.0 °F 76% 30.16 in - WNW 5.8 mph - N/A   Clear
11:55 PM 48.2 °F - 41.0 °F 76% 30.15 in - WNW 4.6 mph - N/A   Clear